Starlink 32751

operational
NORAD ID: 62753 Int'l Des: 2025-014 Owner: SPXS Country: US Constellation: starlink
LEOCIRCULAR

关于 Starlink 32751

正在加载描述...

实时位置

正在加载3D地球...

即将过境

高度历史

Altitude vs Time

uPlot chart will show altitude changes over time

两行轨道根数

1 62753U 25014U 26095.43219421 .00043390 00000-0 15761-2 0 9994
2 62753 43.0043 3.6790 0002241 261.3322 98.7276 15.27599353 67340
Epoch: Apr 5, 2026 • Age: 12 hours

当前状态

高度 491.3 km
速度 7.62 km/s
星下点 -33.97°S, 140.28°E
发射日期 Jan 21, 2025
运行时间 1.2 years
类型 internet

技术详情

分类 Payload
质量 730.00 kg
干质量 700.00 kg
总质量 730.00 kg
长度 0.30 m
直径 4.10 m
跨度 29.00 m
形状 Box + pan
制造商 SPXS
平台类型 Starlink V2M
阶段状态 In Orbit
所有者/国家 SPXS/US

大型星座

Loading constellations...